Location: Unspecified
(40.7945°N, 111.1337°W)
Time: 17:30:43
(UTC-06:00)

Cosmos 2058 - Visible Passes

Search period start: 20 May 2018 00:00
Search period end: 30 May 2018 00:00
Orbit: 564 x 584 km, 82.5° (Epoch: 20 May)

Date Brightness Start Highest point End Pass type
(mag) Time Alt. Az. Time Alt. Az. Time Alt. Az.
20 May 3.8 04:26:24 10° SSE 04:30:26 48° E 04:34:31 10° NNE visible
21 May 3.2 04:29:56 13° S 04:33:35 66° E 04:37:46 10° NNE visible
22 May 2.9 04:33:27 16° S 04:36:44 90° ENE 04:40:58 10° N visible
23 May 2.9 04:36:55 18° SSW 04:39:54 67° W 04:44:07 10° N visible
24 May 5.6 03:04:56 10° ESE 03:06:41 12° E 03:08:25 10° ENE visible
24 May 3.2 04:40:22 19° SSW 04:43:06 49° W 04:47:13 10° N visible
25 May 5.4 03:07:34 12° ESE 03:09:44 16° E 03:12:22 10° NE visible
25 May 3.7 04:43:47 19° SW 04:46:19 37° WNW 04:50:14 10° N visible
26 May 5.0 03:10:58 16° ESE 03:12:48 21° E 03:16:01 10° NE visible
26 May 4.1 04:47:11 17° WSW 04:49:32 28° WNW 04:53:12 10° NNW visible
27 May 4.6 03:14:20 22° SE 03:15:53 28° E 03:19:29 10° NNE visible
27 May 4.4 04:50:34 15° WSW 04:52:47 22° WNW 04:56:04 10° NNW visible
28 May 4.1 03:17:42 30° SE 03:18:59 37° E 03:22:52 10° NNE visible
28 May 4.8 04:53:55 12° WSW 04:56:04 17° WNW 04:58:47 10° NNW visible
29 May 3.5 03:21:02 39° SE 03:22:06 50° E 03:26:11 10° NNE visible
29 May 5.1 04:57:27 10° W 04:59:21 13° WNW 05:01:16 10° NW visible
